When you browse on this site, cookies collect data to enhance your experience and personalize the content and advertising you see.
Visit our Privacy Policy to learn more. By continuing to use the site, you agree to this use of cookies and data.
  • In Hungary
  • List of Countries
  • For 7 days
  • Water Temperature
  • Weather Map
  • News
  • Weather Widgets
  • user-avatar
    Login

    Hourly Weather Mikolajewice

    Today, 7 December, Saturday

    Time Temperature Precipitation Wind Pressure Humidity
    00:00 -2°C° 0 mm 7 mps 741 mmHg 56%
    01:00 -2°C° 0 mm 7 mps 740 mmHg 56%
    02:00 -1°C° 0 mm 7 mps 740 mmHg 56%
    03:00 -1°C° 0 mm 7 mps 739 mmHg 56%
    04:00 0°C° 0 mm 7 mps 738 mmHg 56%
    05:00 0°C° 0 mm 7 mps 738 mmHg 60%
    06:00 0°C° 0 mm 8 mps 738 mmHg 63%
    07:00 0°C° 0 mm 8 mps 738 mmHg 67%
    08:00 +1°C° 0.1 mm 8 mps 738 mmHg 71%
    09:00 +2°C° 0.1 mm 8 mps 738 mmHg 75%
    10:00 +2°C° 0.1 mm 8 mps 738 mmHg 78%
    11:00 +3°C° 0 mm 9 mps 738 mmHg 80%
    12:00 +3°C° 0 mm 9 mps 738 mmHg 82%
    13:00 +3°C° 0 mm 9 mps 737 mmHg 83%
    14:00 +3°C° 0.2 mm 9 mps 738 mmHg 84%
    15:00 +5°C° 0.2 mm 8 mps 738 mmHg 85%
    16:00 +5°C° 0.2 mm 8 mps 738 mmHg 85%
    17:00 +5°C° 0 mm 8 mps 739 mmHg 85%
    18:00 +5°C° 0 mm 8 mps 739 mmHg 84%
    19:00 +5°C° 0 mm 8 mps 740 mmHg 83%
    20:00 +5°C° 0.2 mm 8 mps 740 mmHg 84%
    21:00 +5°C° 0.2 mm 7 mps 740 mmHg 84%
    22:00 +4°C° 0.2 mm 7 mps 740 mmHg 85%
    23:00 +4°C° 0.4 mm 7 mps 741 mmHg 85%

    Tomorrow, 8 December, Sunday

    Time Temperature Precipitation Wind Pressure Humidity
    00:00 +4°C° 0.4 mm 7 mps 741 mmHg 85%
    01:00 +4°C° 0.4 mm 7 mps 741 mmHg 85%
    02:00 +4°C° 0.2 mm 6 mps 741 mmHg 85%
    03:00 +4°C° 0.2 mm 6 mps 741 mmHg 85%
    04:00 +4°C° 0.2 mm 6 mps 741 mmHg 85%
    05:00 +4°C° 0 mm 6 mps 741 mmHg 84%
    06:00 +3°C° 0 mm 6 mps 741 mmHg 84%
    07:00 +3°C° 0 mm 6 mps 741 mmHg 83%
    08:00 +3°C° 0 mm 6 mps 741 mmHg 81%
    09:00 +3°C° 0 mm 6 mps 741 mmHg 79%
    10:00 +4°C° 0 mm 6 mps 741 mmHg 77%
    11:00 +4°C° 0 mm 7 mps 740 mmHg 75%
    12:00 +5°C° 0 mm 7 mps 740 mmHg 72%
    13:00 +5°C° 0 mm 7 mps 739 mmHg 69%
    14:00 +5°C° 0 mm 7 mps 739 mmHg 69%
    15:00 +5°C° 0 mm 7 mps 738 mmHg 70%
    16:00 +5°C° 0 mm 7 mps 737 mmHg 71%
    17:00 +5°C° 0 mm 8 mps 737 mmHg 70%
    18:00 +6°C° 0 mm 8 mps 736 mmHg 69%
    19:00 +6°C° 0 mm 8 mps 736 mmHg 69%
    20:00 +6°C° 0.1 mm 8 mps 736 mmHg 73%
    21:00 +5°C° 0.1 mm 9 mps 735 mmHg 77%
    22:00 +5°C° 0.1 mm 9 mps 735 mmHg 82%
    23:00 +5°C° 0.2 mm 9 mps 735 mmHg 81%

    Day after tomorrow, 9 December, Monday

    Time Temperature Precipitation Wind Pressure Humidity
    00:00 +6°C° 0.2 mm 8 mps 734 mmHg 79%
    01:00 +6°C° 0.2 mm 8 mps 734 mmHg 78%
    02:00 +6°C° 0 mm 8 mps 734 mmHg 79%
    03:00 +5°C° 0 mm 7 mps 734 mmHg 80%
    04:00 +5°C° 0 mm 7 mps 733 mmHg 81%
    05:00 +5°C° 1.1 mm 7 mps 733 mmHg 83%
    06:00 +5°C° 1.1 mm 6 mps 733 mmHg 86%
    07:00 +5°C° 1.1 mm 6 mps 733 mmHg 88%
    08:00 +5°C° 0.1 mm 6 mps 734 mmHg 86%
    09:00 +6°C° 0.1 mm 5 mps 734 mmHg 83%
    10:00 +7°C° 0.1 mm 5 mps 734 mmHg 81%
    11:00 +7°C° 0 mm 5 mps 734 mmHg 75%
    12:00 +7°C° 0 mm 5 mps 734 mmHg 70%
    13:00 +7°C° 0 mm 5 mps 734 mmHg 65%
    14:00 +6°C° 0 mm 4 mps 734 mmHg 67%
    15:00 +6°C° 0 mm 4 mps 734 mmHg 70%
    16:00 +5°C° 0 mm 3 mps 734 mmHg 72%
    17:00 +5°C° 0 mm 3 mps 734 mmHg 73%
    18:00 +5°C° 0 mm 4 mps 734 mmHg 73%
    19:00 +4°C° 0 mm 4 mps 734 mmHg 74%
    20:00 +4°C° 0 mm 4 mps 734 mmHg 77%
    21:00 +4°C° 0 mm 4 mps 734 mmHg 80%
    22:00 +3°C° 0 mm 4 mps 734 mmHg 83%
    23:00 +3°C° 0 mm 4 mps 734 mmHg 84%

    10 December, Tuesday

    Time Temperature Precipitation Wind Pressure Humidity
    00:00 +3°C° 0 mm 4 mps 734 mmHg 85%
    01:00 +3°C° 0 mm 4 mps 734 mmHg 87%
    02:00 +3°C° 0 mm 4 mps 734 mmHg 85%
    03:00 +3°C° 0 mm 4 mps 735 mmHg 83%
    04:00 +3°C° 0 mm 4 mps 735 mmHg 81%
    05:00 +3°C° 0.1 mm 4 mps 735 mmHg 83%
    06:00 +3°C° 0.1 mm 4 mps 736 mmHg 85%
    07:00 +2°C° 0.1 mm 5 mps 737 mmHg 86%
    08:00 +2°C° 0.1 mm 5 mps 737 mmHg 86%
    09:00 +3°C° 0.1 mm 5 mps 738 mmHg 86%
    10:00 +3°C° 0.1 mm 6 mps 739 mmHg 86%
    11:00 +3°C° 0.1 mm 6 mps 739 mmHg 83%
    12:00 +3°C° 0.1 mm 6 mps 739 mmHg 79%
    13:00 +4°C° 0.1 mm 6 mps 740 mmHg 76%
    14:00 +3°C° 0 mm 6 mps 740 mmHg 79%
    15:00 +3°C° 0 mm 6 mps 741 mmHg 82%
    16:00 +2°C° 0 mm 5 mps 741 mmHg 86%
    17:00 +2°C° 0.1 mm 5 mps 742 mmHg 87%
    18:00 +4°C° 0.1 mm 4 mps 743 mmHg 89%
    19:00 +4°C° 0.1 mm 4 mps 744 mmHg 90%
    20:00 +3°C° 0.1 mm 4 mps 744 mmHg 89%
    21:00 +2°C° 0.1 mm 5 mps 745 mmHg 88%
    22:00 +2°C° 0.1 mm 6 mps 746 mmHg 87%
    23:00 +2°C° 0 mm 5 mps 747 mmHg 84%

    11 December, Wednesday

    Time Temperature Precipitation Wind Pressure Humidity
    00:00 +2°C° 0 mm 5 mps 747 mmHg 82%
    01:00 +1°C° 0 mm 4 mps 748 mmHg 80%
    02:00 +1°C° 0 mm 4 mps 748 mmHg 80%
    03:00 +2°C° 0 mm 3 mps 749 mmHg 80%
    04:00 +1°C° 0 mm 3 mps 749 mmHg 80%
    05:00 +1°C° 0 mm 3 mps 750 mmHg 77%
    06:00 +1°C° 0 mm 2 mps 750 mmHg 74%
    07:00 -1°C° 0 mm 2 mps 750 mmHg 71%
    08:00 +1°C° 0 mm 2 mps 750 mmHg 67%
    09:00 +1°C° 0 mm 2 mps 750 mmHg 63%
    10:00 +1°C° 0 mm 2 mps 750 mmHg 59%
    11:00 +2°C° 0 mm 2 mps 750 mmHg 58%
    12:00 +2°C° 0 mm 2 mps 749 mmHg 56%
    13:00 +1°C° 0 mm 3 mps 749 mmHg 55%
    14:00 +1°C° 0 mm 3 mps 749 mmHg 59%
    15:00 0°C° 0 mm 3 mps 748 mmHg 64%
    16:00 0°C° 0 mm 3 mps 748 mmHg 68%
    17:00 -1°C° 0 mm 3 mps 748 mmHg 71%
    18:00 -1°C° 0 mm 3 mps 747 mmHg 74%
    19:00 -1°C° 0 mm 3 mps 747 mmHg 77%
    20:00 -2°C° 0 mm 4 mps 747 mmHg 78%
    21:00 -2°C° 0 mm 4 mps 747 mmHg 80%
    22:00 -2°C° 0 mm 4 mps 747 mmHg 81%
    23:00 -2°C° 0 mm 4 mps 746 mmHg 81%

    12 December, Thursday

    Time Temperature Precipitation Wind Pressure Humidity
    00:00 -2°C° 0 mm 4 mps 746 mmHg 81%
    01:00 -2°C° 0 mm 4 mps 745 mmHg 82%
    02:00 -2°C° 0 mm 4 mps 745 mmHg 82%
    03:00 -2°C° 0 mm 4 mps 745 mmHg 82%
    04:00 -2°C° 0 mm 4 mps 744 mmHg 82%
    05:00 -2°C° 0 mm 4 mps 744 mmHg 82%
    06:00 -1°C° 0 mm 3 mps 744 mmHg 83%
    07:00 -1°C° 0 mm 3 mps 744 mmHg 83%
    08:00 -2°C° 0 mm 4 mps 743 mmHg 79%
    09:00 -1°C° 0 mm 4 mps 743 mmHg 75%
    10:00 0°C° 0 mm 4 mps 743 mmHg 72%
    11:00 0°C° 0 mm 4 mps 743 mmHg 69%
    12:00 +1°C° 0 mm 4 mps 742 mmHg 67%
    13:00 +2°C° 0 mm 3 mps 742 mmHg 64%
    14:00 +1°C° 0 mm 3 mps 742 mmHg 69%
    15:00 0°C° 0 mm 3 mps 741 mmHg 73%
    16:00 -1°C° 0 mm 3 mps 741 mmHg 77%
    17:00 -1°C° 0 mm 3 mps 741 mmHg 79%
    18:00 -1°C° 0 mm 3 mps 740 mmHg 80%
    19:00 -1°C° 0 mm 3 mps 740 mmHg 81%
    20:00 -1°C° 0 mm 3 mps 740 mmHg 81%
    21:00 -1°C° 0 mm 3 mps 739 mmHg 82%
    22:00 -1°C° 0 mm 3 mps 739 mmHg 82%
    23:00 -1°C° 0 mm 3 mps 738 mmHg 82%
    Show more